UAL7696 KFLL-KATL

Flight info

Callsign UAL7696
Flight time 1h 34m
Altitude 36000
Route FRSBE2 STYMY Q77 MJAMS/N0453F370 Q77 SHRKS/N0454F360 LAIRI LARZZ JJEDI4
Aircraft B38M/M-SDE1FGHILORVWXY/HB1

Departure

Time 2026-05-07 03:40
Airport Fort Lauderdale Hollywood International Airport (KFLL)

Arrival

Time 2026-05-07 05:15
Airport Hartsfield Jackson Atlanta International Airport (KATL)
Time Latitude Longitude Altitude Speed Heading
2026-05-07 03:28 26.07144 -80.14728 23 ft 0 kts 161°
2026-05-07 03:33 26.07155 -80.14733 26 ft 3 kts 161°
2026-05-07 03:33 26.07172 -80.14739 26 ft 3 kts 161°
2026-05-07 03:33 26.07189 -80.14745 27 ft 3 kts 186°
2026-05-07 03:34 26.07203 -80.14736 27 ft 1 kts 239°
2026-05-07 03:36 26.07193 -80.14764 26 ft 10 kts 260°
2026-05-07 03:36 26.07219 -80.14855 24 ft 13 kts 356°
2026-05-07 03:37 26.07322 -80.14856 26 ft 16 kts 355°
2026-05-07 03:37 26.07403 -80.14948 22 ft 19 kts 311°
2026-05-07 03:37 26.07492 -80.15048 23 ft 15 kts 315°
2026-05-07 03:37 26.07557 -80.15152 20 ft 20 kts 283°
2026-05-07 03:38 26.07564 -80.15335 19 ft 26 kts 270°
2026-05-07 03:38 26.07564 -80.15543 19 ft 28 kts 270°
2026-05-07 03:38 26.07566 -80.15760 23 ft 28 kts 270°
2026-05-07 03:38 26.07567 -80.15980 26 ft 29 kts 270°
2026-05-07 03:39 26.07569 -80.16206 28 ft 30 kts 270°
2026-05-07 03:39 26.07569 -80.16442 28 ft 31 kts 270°
2026-05-07 03:39 26.07605 -80.16556 27 ft 17 kts 334°
2026-05-07 03:39 26.07697 -80.16492 26 ft 18 kts 90°
2026-05-07 03:40 26.07693 -80.16342 30 ft 24 kts 92°
2026-05-07 03:40 26.07690 -80.15829 25 ft 111 kts 90°
2026-05-07 03:40 26.07686 -80.14679 131 ft 176 kts 91°
2026-05-07 03:40 26.07680 -80.13259 936 ft 195 kts 86°
2026-05-07 03:41 26.07854 -80.11692 1632 ft 205 kts 84°
2026-05-07 03:41 26.07960 -80.10026 2216 ft 227 kts 82°
2026-05-07 03:41 26.08569 -80.08345 2856 ft 238 kts 53°
2026-05-07 03:41 26.09821 -80.07066 3516 ft 255 kts 30°
2026-05-07 03:42 26.11466 -80.06261 4181 ft 265 kts 20°
2026-05-07 03:42 26.13176 -80.05530 5179 ft 264 kts 20°
2026-05-07 03:42 26.14951 -80.04955 6025 ft 267 kts
2026-05-07 03:42 26.16801 -80.05223 6827 ft 274 kts 344°
2026-05-07 03:43 26.18636 -80.05893 7516 ft 280 kts 343°
2026-05-07 03:43 26.20489 -80.06589 8271 ft 285 kts 340°
2026-05-07 03:43 26.22148 -80.07820 9011 ft 293 kts 315°
2026-05-07 03:43 26.23240 -80.09741 9677 ft 304 kts 294°
2026-05-07 03:44 26.24025 -80.11949 10315 ft 312 kts 294°
2026-05-07 03:44 26.24860 -80.14254 10697 ft 329 kts 293°
2026-05-07 03:44 26.25826 -80.16595 11244 ft 334 kts 303°
2026-05-07 03:44 26.27081 -80.18770 12076 ft 334 kts 304°
2026-05-07 03:45 26.28336 -80.20963 12854 ft 337 kts 304°
2026-05-07 03:45 26.29596 -80.23174 13694 ft 339 kts 304°
2026-05-07 03:45 26.30857 -80.25392 14458 ft 341 kts 304°
2026-05-07 03:45 26.32128 -80.27631 15229 ft 343 kts 304°
2026-05-07 03:46 26.33388 -80.29853 15972 ft 345 kts 303°
2026-05-07 03:46 26.34675 -80.32124 16692 ft 348 kts 303°
2026-05-07 03:46 26.35967 -80.34403 17402 ft 350 kts 303°
2026-05-07 03:46 26.37275 -80.36710 18105 ft 352 kts 302°
2026-05-07 03:47 26.38584 -80.39022 18726 ft 354 kts 302°
2026-05-07 03:47 26.39904 -80.41353 19313 ft 356 kts 302°
2026-05-07 03:47 26.41229 -80.43695 19910 ft 358 kts 302°
2026-05-07 03:47 26.42559 -80.46047 20489 ft 359 kts 302°
2026-05-07 03:48 26.43890 -80.48404 21063 ft 361 kts 302°
2026-05-07 03:48 26.45233 -80.50781 21626 ft 363 kts 302°
2026-05-07 03:48 26.46564 -80.53138 22183 ft 365 kts 303°
2026-05-07 03:48 26.48197 -80.55310 22702 ft 369 kts 319°
2026-05-07 03:49 26.50387 -80.56814 23256 ft 374 kts 335°
2026-05-07 03:49 26.52871 -80.57738 23763 ft 378 kts 339°
2026-05-07 03:49 26.55396 -80.58604 24180 ft 381 kts 340°
2026-05-07 03:49 26.57939 -80.59447 24653 ft 382 kts 340°
2026-05-07 03:50 26.60470 -80.60270 25104 ft 384 kts 340°
2026-05-07 03:50 26.63046 -80.61096 25548 ft 387 kts 340°
2026-05-07 03:50 26.65638 -80.61923 25980 ft 389 kts 340°
2026-05-07 03:50 26.68233 -80.62750 26406 ft 391 kts 340°
2026-05-07 03:51 26.70861 -80.63586 26828 ft 393 kts 340°
2026-05-07 03:51 26.73502 -80.64427 27240 ft 395 kts 340°
2026-05-07 03:51 26.76150 -80.65270 27657 ft 398 kts 340°
2026-05-07 03:51 26.78816 -80.66120 28060 ft 400 kts 340°
2026-05-07 03:52 26.81500 -80.66976 28463 ft 402 kts 340°
2026-05-07 03:52 26.84192 -80.67834 28852 ft 404 kts 340°
2026-05-07 03:52 26.86871 -80.68689 29255 ft 406 kts 339°
2026-05-07 03:52 26.89593 -80.69559 29673 ft 407 kts 339°
2026-05-07 03:53 26.92275 -80.70512 30069 ft 407 kts 336°
2026-05-07 03:53 26.94964 -80.71549 30351 ft 411 kts 336°
2026-05-07 03:53 26.97683 -80.72581 30676 ft 413 kts 336°
2026-05-07 03:53 27.00409 -80.73609 30965 ft 415 kts 336°
2026-05-07 03:54 27.03159 -80.74644 31268 ft 417 kts 336°
2026-05-07 03:54 27.05917 -80.75683 31552 ft 420 kts 337°
2026-05-07 03:54 27.08659 -80.76716 31840 ft 422 kts 337°
2026-05-07 03:54 27.11451 -80.77769 32129 ft 425 kts 337°
2026-05-07 03:55 27.14249 -80.78824 32425 ft 427 kts 337°
2026-05-07 03:55 27.17072 -80.79890 32700 ft 429 kts 337°
2026-05-07 03:55 27.19909 -80.80961 33009 ft 431 kts 336°
2026-05-07 03:55 27.22764 -80.82040 33353 ft 432 kts 337°
2026-05-07 03:56 27.25606 -80.83114 33730 ft 432 kts 337°
2026-05-07 03:56 27.28458 -80.84193 34106 ft 431 kts 337°
2026-05-07 03:56 27.31260 -80.85256 34443 ft 430 kts 336°
2026-05-07 03:56 27.34067 -80.86410 34778 ft 429 kts 335°
2026-05-07 03:57 27.36869 -80.87566 35106 ft 429 kts 335°
2026-05-07 03:57 27.39658 -80.88713 35424 ft 428 kts 335°
2026-05-07 03:57 27.42457 -80.89862 35750 ft 428 kts 335°
2026-05-07 03:57 27.45250 -80.91010 36018 ft 428 kts 335°
2026-05-07 03:58 27.48047 -80.92160 36091 ft 428 kts 335°
2026-05-07 03:58 27.53607 -80.94446 36087 ft 424 kts 335°
2026-05-07 03:59 27.59110 -80.96712 36090 ft 424 kts 335°
2026-05-07 03:59 27.64643 -80.98993 36090 ft 424 kts 335°
2026-05-07 04:00 27.70190 -81.01282 36087 ft 424 kts 335°
2026-05-07 04:00 27.75735 -81.03572 36077 ft 424 kts 335°
2026-05-07 04:01 27.81236 -81.05848 36082 ft 423 kts 334°
2026-05-07 04:01 27.86750 -81.08130 36080 ft 423 kts 334°
2026-05-07 04:02 27.92282 -81.10423 36081 ft 423 kts 334°
2026-05-07 04:02 27.97803 -81.12714 36082 ft 423 kts 334°
2026-05-07 04:03 28.03287 -81.15015 36077 ft 421 kts 331°
2026-05-07 04:03 28.08577 -81.17773 36104 ft 420 kts 330°
2026-05-07 04:04 28.13900 -81.20500 36094 ft 419 kts 330°
2026-05-07 04:04 28.19218 -81.23216 36098 ft 419 kts 330°
2026-05-07 04:05 28.24537 -81.25935 36101 ft 419 kts 330°
2026-05-07 04:05 28.29822 -81.28641 36088 ft 419 kts 330°
2026-05-07 04:06 28.35136 -81.31357 36095 ft 420 kts 330°
2026-05-07 04:06 28.40465 -81.34079 36106 ft 420 kts 330°
2026-05-07 04:07 28.45786 -81.36799 36102 ft 419 kts 330°
2026-05-07 04:07 28.51098 -81.39519 36089 ft 419 kts 330°
2026-05-07 04:08 28.56361 -81.42216 36093 ft 419 kts 330°
2026-05-07 04:08 28.61673 -81.44941 36096 ft 419 kts 330°
2026-05-07 04:09 28.66983 -81.47669 36091 ft 419 kts 330°
2026-05-07 04:09 28.72294 -81.50399 36089 ft 417 kts 329°
2026-05-07 04:10 28.77564 -81.53112 36088 ft 416 kts 329°
2026-05-07 04:10 28.82807 -81.55814 36080 ft 416 kts 329°
2026-05-07 04:11 28.88087 -81.58538 36080 ft 416 kts 329°
2026-05-07 04:11 28.93538 -81.60840 36047 ft 428 kts 346°
2026-05-07 04:12 28.99504 -81.61498 36086 ft 433 kts 347°
2026-05-07 04:12 29.05460 -81.62077 36066 ft 432 kts 347°
2026-05-07 04:13 29.11448 -81.62633 36068 ft 432 kts 348°
2026-05-07 04:13 29.17445 -81.63184 36069 ft 432 kts 348°
2026-05-07 04:14 29.23445 -81.63734 36071 ft 432 kts 348°
2026-05-07 04:14 29.29390 -81.64280 36100 ft 432 kts 347°
2026-05-07 04:15 29.35369 -81.64829 36072 ft 431 kts 347°
2026-05-07 04:15 29.41343 -81.65378 36077 ft 431 kts 347°
2026-05-07 04:16 29.47330 -81.65928 36099 ft 432 kts 347°
2026-05-07 04:16 29.53268 -81.66476 36069 ft 431 kts 347°
2026-05-07 04:17 29.59249 -81.67028 36086 ft 430 kts 347°
2026-05-07 04:17 29.65200 -81.67578 36070 ft 428 kts 347°
2026-05-07 04:18 29.71148 -81.68128 36071 ft 429 kts 347°
2026-05-07 04:18 29.77079 -81.68677 36068 ft 429 kts 347°
2026-05-07 04:19 29.82981 -81.69225 36067 ft 429 kts 347°
2026-05-07 04:19 29.88928 -81.69776 36072 ft 429 kts 347°
2026-05-07 04:20 29.94875 -81.70330 36065 ft 429 kts 347°
2026-05-07 04:20 30.00768 -81.70878 36065 ft 429 kts 347°
2026-05-07 04:21 30.09688 -81.71709 36069 ft 429 kts 347°
2026-05-07 04:21 30.15631 -81.72264 36078 ft 430 kts 347°
2026-05-07 04:22 30.21651 -81.72826 36078 ft 436 kts 347°
2026-05-07 04:22 30.27632 -81.73386 36081 ft 435 kts 347°
2026-05-07 04:23 30.33666 -81.73951 36082 ft 435 kts 347°
2026-05-07 04:23 30.39707 -81.74517 36056 ft 435 kts 347°
2026-05-07 04:24 30.45745 -81.75084 36054 ft 435 kts 347°
2026-05-07 04:24 30.51729 -81.75645 36028 ft 435 kts 347°
2026-05-07 04:25 30.57759 -81.76214 36058 ft 435 kts 347°
2026-05-07 04:25 30.63534 -81.77602 36056 ft 413 kts 327°
2026-05-07 04:26 30.68708 -81.80414 36049 ft 415 kts 328°
2026-05-07 04:26 30.73864 -81.83328 36059 ft 416 kts 327°
2026-05-07 04:27 30.79048 -81.86317 36056 ft 416 kts 327°
2026-05-07 04:27 30.84228 -81.89318 36033 ft 416 kts 327°
2026-05-07 04:28 30.89405 -81.92322 36037 ft 416 kts 327°
2026-05-07 04:28 30.94548 -81.95309 36026 ft 416 kts 327°
2026-05-07 04:29 30.99706 -81.98309 36058 ft 416 kts 326°
2026-05-07 04:29 31.04889 -82.01327 36044 ft 416 kts 327°
2026-05-07 04:30 31.10068 -82.04347 36021 ft 416 kts 327°
2026-05-07 04:30 31.15213 -82.07351 36028 ft 416 kts 326°
2026-05-07 04:31 31.20382 -82.10372 36028 ft 416 kts 326°
2026-05-07 04:31 31.25558 -82.13400 36036 ft 416 kts 326°
2026-05-07 04:32 31.30742 -82.16438 36046 ft 417 kts 326°
2026-05-07 04:32 31.35901 -82.19464 36035 ft 418 kts 326°
2026-05-07 04:33 31.41087 -82.22510 36030 ft 418 kts 326°
2026-05-07 04:33 31.46281 -82.25565 36025 ft 418 kts 326°
2026-05-07 04:34 31.51473 -82.28622 36016 ft 418 kts 326°
2026-05-07 04:34 31.56666 -82.31684 36012 ft 418 kts 326°
2026-05-07 04:35 31.61829 -82.34731 36004 ft 419 kts 326°
2026-05-07 04:35 31.67021 -82.37799 36009 ft 419 kts 326°
2026-05-07 04:36 31.72223 -82.40879 36008 ft 419 kts 326°
2026-05-07 04:36 31.77433 -82.43965 36003 ft 419 kts 326°
2026-05-07 04:37 31.82607 -82.47035 36007 ft 419 kts 326°
2026-05-07 04:37 31.87803 -82.50121 36035 ft 420 kts 325°
2026-05-07 04:38 31.93023 -82.53224 36019 ft 420 kts 325°
2026-05-07 04:38 31.97854 -82.56855 36030 ft 405 kts 312°
2026-05-07 04:39 32.02134 -82.61130 36018 ft 401 kts 313°
2026-05-07 04:39 32.06315 -82.65365 36012 ft 395 kts 312°
2026-05-07 04:40 32.10473 -82.69606 36018 ft 395 kts 312°
2026-05-07 04:40 32.14631 -82.73854 36040 ft 395 kts 312°
2026-05-07 04:41 32.18756 -82.78075 36016 ft 395 kts 312°
2026-05-07 04:41 32.22901 -82.82322 36018 ft 394 kts 312°
2026-05-07 04:42 32.27031 -82.86559 36007 ft 394 kts 312°
2026-05-07 04:42 32.31171 -82.90811 36024 ft 394 kts 312°
2026-05-07 04:43 32.35282 -82.95039 36014 ft 394 kts 312°
2026-05-07 04:43 32.39424 -82.99298 36019 ft 394 kts 312°
2026-05-07 04:44 32.43554 -83.03548 36058 ft 394 kts 312°
2026-05-07 04:44 32.47694 -83.07812 36022 ft 394 kts 311°
2026-05-07 04:45 32.51825 -83.12073 36023 ft 394 kts 312°
2026-05-07 04:45 32.55932 -83.16314 36008 ft 395 kts 312°
2026-05-07 04:46 32.60085 -83.20612 36020 ft 397 kts 312°
2026-05-07 04:46 32.64239 -83.24921 36011 ft 397 kts 312°
2026-05-07 04:47 32.68397 -83.29241 36003 ft 397 kts 312°
2026-05-07 04:47 32.72524 -83.33534 36017 ft 397 kts 311°
2026-05-07 04:48 32.76680 -83.37861 35999 ft 397 kts 311°
2026-05-07 04:48 32.80858 -83.42220 34970 ft 409 kts 312°
2026-05-07 04:49 32.83028 -83.44485 33824 ft 422 kts 313°
2026-05-07 04:49 32.85242 -83.46795 32632 ft 423 kts 313°
2026-05-07 04:49 32.87417 -83.49068 31596 ft 420 kts 313°
2026-05-07 04:49 32.89591 -83.51341 30773 ft 412 kts 313°
2026-05-07 04:50 32.91717 -83.53566 30031 ft 402 kts 313°
2026-05-07 04:50 32.93796 -83.55744 29166 ft 395 kts 313°
2026-05-07 04:50 32.95919 -83.57778 28309 ft 394 kts 323°
2026-05-07 04:50 32.98491 -83.58989 27457 ft 405 kts 343°
2026-05-07 04:51 33.01349 -83.59006 26609 ft 422 kts
2026-05-07 04:51 33.04116 -83.57757 25723 ft 438 kts 26°
2026-05-07 04:51 33.06407 -83.55303 24825 ft 451 kts 50°
2026-05-07 04:51 33.07786 -83.51994 23953 ft 458 kts 73°
2026-05-07 04:52 33.08045 -83.48235 23044 ft 456 kts 98°
2026-05-07 04:52 33.07115 -83.44687 22175 ft 444 kts 123°
2026-05-07 04:52 33.05194 -83.41931 21335 ft 425 kts 148°
2026-05-07 04:52 33.02690 -83.40261 20591 ft 406 kts 165°
2026-05-07 04:53 33.00056 -83.39141 19860 ft 400 kts 165°
2026-05-07 04:53 32.97520 -83.37802 19124 ft 396 kts 163°
2026-05-07 04:53 32.94994 -83.36585 18420 ft 383 kts 174°
2026-05-07 04:53 32.92489 -83.36336 17813 ft 354 kts 194°
2026-05-07 04:54 32.90233 -83.37144 17221 ft 328 kts 214°
2026-05-07 04:54 32.88502 -83.38753 16665 ft 309 kts 233°
2026-05-07 04:54 32.87404 -83.40871 16136 ft 296 kts 249°
2026-05-07 04:54 32.86965 -83.43216 15633 ft 289 kts 265°
2026-05-07 04:55 32.87157 -83.45579 15121 ft 288 kts 279°
2026-05-07 04:55 32.87928 -83.47783 14602 ft 293 kts 295°
2026-05-07 04:55 32.89145 -83.49713 14365 ft 291 kts 301°
2026-05-07 04:55 32.90450 -83.51521 14184 ft 292 kts 303°
2026-05-07 04:56 32.91844 -83.53276 13974 ft 292 kts 306°
2026-05-07 04:56 32.93294 -83.54979 13792 ft 294 kts 307°
2026-05-07 04:56 32.94784 -83.56648 13594 ft 295 kts 308°
2026-05-07 04:56 32.96300 -83.58294 13374 ft 295 kts 309°
2026-05-07 04:57 32.97823 -83.59923 13171 ft 294 kts 309°
2026-05-07 04:57 32.99350 -83.61542 12960 ft 293 kts 309°
2026-05-07 04:57 33.00872 -83.63148 12779 ft 291 kts 310°
2026-05-07 04:57 33.02365 -83.64718 12578 ft 289 kts 310°
2026-05-07 04:58 33.03874 -83.66303 12376 ft 288 kts 310°
2026-05-07 04:58 33.05376 -83.67881 12175 ft 288 kts 310°
2026-05-07 04:58 33.06874 -83.69455 11973 ft 287 kts 310°
2026-05-07 04:58 33.08370 -83.71027 11777 ft 286 kts 310°
2026-05-07 04:59 33.09857 -83.72589 11591 ft 284 kts 310°
2026-05-07 04:59 33.11339 -83.74147 11371 ft 283 kts 310°
2026-05-07 04:59 33.12813 -83.75699 11187 ft 282 kts 310°
2026-05-07 04:59 33.14264 -83.77227 10996 ft 282 kts 309°
2026-05-07 05:00 33.15729 -83.78775 10801 ft 281 kts 310°
2026-05-07 05:00 33.17187 -83.80315 10607 ft 280 kts 310°
2026-05-07 05:00 33.18640 -83.81848 10413 ft 280 kts 309°
2026-05-07 05:00 33.20018 -83.83462 10219 ft 276 kts 306°
2026-05-07 05:01 33.21373 -83.85085 10034 ft 276 kts 307°
2026-05-07 05:01 33.22732 -83.86700 9850 ft 275 kts 307°
2026-05-07 05:01 33.24087 -83.88309 9646 ft 274 kts 307°
2026-05-07 05:01 33.25420 -83.89888 9450 ft 273 kts 307°
2026-05-07 05:02 33.26762 -83.91479 9245 ft 271 kts 307°
2026-05-07 05:02 33.28096 -83.93062 9028 ft 269 kts 307°
2026-05-07 05:02 33.29421 -83.94636 8849 ft 268 kts 307°
2026-05-07 05:02 33.30741 -83.96216 8651 ft 268 kts 307°
2026-05-07 05:03 33.32054 -83.97787 8459 ft 267 kts 307°
2026-05-07 05:03 33.33366 -83.99357 8258 ft 267 kts 307°
2026-05-07 05:03 33.34679 -84.00930 8074 ft 266 kts 307°
2026-05-07 05:03 33.36112 -84.02312 7871 ft 276 kts 325°
2026-05-07 05:04 33.37999 -84.02925 7650 ft 292 kts 349°
2026-05-07 05:04 33.40032 -84.02957 7478 ft 288 kts 351°
2026-05-07 05:04 33.41958 -84.02990 7315 ft 266 kts 351°
2026-05-07 05:04 33.43753 -84.03026 7082 ft 251 kts 350°
2026-05-07 05:05 33.45482 -84.03063 6869 ft 247 kts 350°
2026-05-07 05:05 33.47194 -84.03114 6648 ft 245 kts 349°
2026-05-07 05:05 33.48892 -84.03180 6448 ft 243 kts 349°
2026-05-07 05:05 33.50552 -84.03256 6236 ft 241 kts 347°
2026-05-07 05:06 33.52179 -84.03563 6058 ft 234 kts 338°
2026-05-07 05:06 33.53759 -84.04023 5976 ft 234 kts 337°
2026-05-07 05:06 33.55347 -84.04501 5977 ft 238 kts 336°
2026-05-07 05:06 33.56964 -84.04983 6008 ft 237 kts 337°
2026-05-07 05:07 33.58512 -84.05422 5963 ft 221 kts 337°
2026-05-07 05:07 33.59961 -84.05810 5934 ft 208 kts 337°
2026-05-07 05:07 33.61319 -84.06288 5614 ft 201 kts 324°
2026-05-07 05:07 33.62295 -84.07285 5273 ft 178 kts 291°
2026-05-07 05:08 33.62614 -84.08638 4982 ft 165 kts 263°
2026-05-07 05:08 33.62704 -84.10027 4880 ft 170 kts 272°
2026-05-07 05:08 33.62894 -84.11409 4823 ft 165 kts 271°
2026-05-07 05:08 33.63021 -84.12751 4827 ft 161 kts 268°
2026-05-07 05:09 33.63092 -84.14107 4888 ft 163 kts 267°
2026-05-07 05:09 33.63133 -84.15476 4877 ft 166 kts 266°
2026-05-07 05:09 33.63154 -84.16865 4763 ft 166 kts 265°
2026-05-07 05:09 33.63166 -84.18231 4660 ft 166 kts 263°
2026-05-07 05:10 33.63151 -84.19599 4476 ft 165 kts 264°
2026-05-07 05:10 33.63153 -84.20990 4281 ft 167 kts 264°
2026-05-07 05:10 33.63167 -84.22385 4061 ft 167 kts 263°
2026-05-07 05:10 33.63184 -84.23780 3859 ft 167 kts 262°
2026-05-07 05:11 33.63184 -84.25167 3632 ft 167 kts 260°
2026-05-07 05:11 33.63206 -84.26566 3422 ft 168 kts 262°
2026-05-07 05:11 33.63212 -84.27922 3242 ft 152 kts 258°
2026-05-07 05:11 33.63209 -84.29100 3078 ft 138 kts 258°
2026-05-07 05:12 33.63194 -84.30238 2888 ft 136 kts 260°
2026-05-07 05:12 33.63187 -84.31373 2732 ft 137 kts 263°
2026-05-07 05:12 33.63178 -84.32542 2530 ft 144 kts 260°
2026-05-07 05:12 33.63195 -84.33726 2387 ft 139 kts 262°
2026-05-07 05:13 33.63187 -84.34908 2214 ft 143 kts 257°
2026-05-07 05:13 33.63133 -84.36124 2046 ft 150 kts 261°
2026-05-07 05:13 33.63203 -84.37406 1810 ft 156 kts 265°
2026-05-07 05:13 33.63191 -84.38694 1610 ft 159 kts 261°
2026-05-07 05:14 33.63154 -84.40019 1392 ft 159 kts 268°
2026-05-07 05:14 33.63180 -84.41331 1157 ft 157 kts 266°
2026-05-07 05:14 33.63180 -84.42608 1009 ft 144 kts 267°
2026-05-07 05:14 33.63182 -84.43518 1010 ft 72 kts 270°
2026-05-07 05:15 33.63180 -84.43906 1007 ft 36 kts 271°
2026-05-07 05:15 33.63243 -84.44197 1008 ft 36 kts 297°
2026-05-07 05:15 33.63318 -84.44263 1008 ft 6 kts 17°
2026-05-07 05:15 33.63352 -84.44239 1008 ft 0 kts 37°
2026-05-07 05:16 33.63353 -84.44238 1008 ft 1 kts 37°
2026-05-07 05:16 33.63414 -84.44200 1008 ft 18 kts 13°
2026-05-07 05:16 33.63580 -84.44192 1010 ft 21 kts
2026-05-07 05:16 33.63663 -84.44154 1009 ft 14 kts 41°
2026-05-07 05:17 33.63756 -84.44115 1009 ft 16 kts 357°
2026-05-07 05:17 33.63861 -84.44117 1009 ft 15 kts 359°
2026-05-07 05:17 33.63976 -84.44114 1009 ft 18 kts 358°
2026-05-07 05:17 33.64082 -84.44117 1009 ft 13 kts 359°
2026-05-07 05:18 33.64179 -84.44118 1009 ft 15 kts
2026-05-07 05:18 33.64254 -84.44128 1009 ft 6 kts 301°
2026-05-07 05:18 33.64262 -84.44176 1009 ft 5 kts 267°
2026-05-07 05:18 33.64262 -84.44189 1009 ft 0 kts 270°